Time,TemperatureF,DewpointF,PressureIn,WindDirection,WindDirectionDegrees,WindSpeedMPH,WindSpeedGustMPH,Humidity,HourlyPrecipIn,Conditions,Clouds,dailyrainin,SoftwareType,DateUTC
2014-01-10 00:00:00,60.8,59.0,30.02,SSE,157,3.7,8.0,96,0.00,,,0.00,Rainwise IP-100,2014-01-10 06:00:00,
2014-01-10 00:05:00,60.8,59.0,30.02,SSE,157,6.1,12.0,96,0.00,,,0.00,Rainwise IP-100,2014-01-10 06:05:00,
2014-01-10 00:10:00,60.8,59.0,30.01,South,180,5.1,9.0,96,0.00,,,0.00,Rainwise IP-100,2014-01-10 06:10:00,
2014-01-10 00:15:00,60.8,59.0,30.01,South,180,8.6,10.0,96,0.00,,,0.00,Rainwise IP-100,2014-01-10 06:15:00,
2014-01-10 00:20:00,60.8,59.0,30.01,SSW,202,3.3,10.0,96,0.00,,,0.00,Rainwise IP-100,2014-01-10 06:20:00,
2014-01-10 00:26:00,60.8,59.0,30.00,SSE,157,2.3,10.0,96,0.00,,,0.00,Rainwise IP-100,2014-01-10 06:26:00,
2014-01-10 00:31:00,60.9,60.0,30.01,South,180,8.6,13.0,96,0.06,,,0.01,Rainwise IP-100,2014-01-10 06:31:00,
2014-01-10 00:36:00,61.0,60.0,30.00,SE,135,4.4,13.0,96,0.06,,,0.01,Rainwise IP-100,2014-01-10 06:36:00,
2014-01-10 00:41:00,61.0,60.0,30.00,SSE,157,8.9,17.0,96,0.00,,,0.01,Rainwise IP-100,2014-01-10 06:41:00,
2014-01-10 00:46:00,61.0,60.0,30.00,SSE,157,3.0,11.0,96,0.00,,,0.01,Rainwise IP-100,2014-01-10 06:46:00,
2014-01-10 00:51:00,61.0,60.0,30.00,SSE,157,11.4,16.0,96,0.00,,,0.01,Rainwise IP-100,2014-01-10 06:51:00,
2014-01-10 00:56:00,61.0,60.0,30.00,South,180,6.8,16.0,96,0.00,,,0.01,Rainwise IP-100,2014-01-10 06:56:00,
2014-01-10 01:01:00,61.1,60.0,30.00,South,180,4.7,13.0,96,0.00,,,0.01,Rainwise IP-100,2014-01-10 07:01:00,
2014-01-10 01:07:00,61.2,60.0,30.00,SSE,157,5.1,12.0,96,0.00,,,0.01,Rainwise IP-100,2014-01-10 07:07:00,
2014-01-10 01:12:00,61.3,59.0,29.99,SSE,157,7.5,14.0,95,0.00,,,0.01,Rainwise IP-100,2014-01-10 07:12:00,
2014-01-10 01:17:00,61.3,59.0,29.99,South,180,7.7,11.0,95,0.00,,,0.01,Rainwise IP-100,2014-01-10 07:17:00,
2014-01-10 01:22:00,61.4,60.0,29.99,SSE,157,10.5,12.0,95,0.00,,,0.01,Rainwise IP-100,2014-01-10 07:22:00,
2014-01-10 01:27:00,61.5,60.0,29.98,SSE,157,4.0,14.0,95,0.00,,,0.01,Rainwise IP-100,2014-01-10 07:27:00,
2014-01-10 01:32:00,61.6,60.0,29.98,South,180,7.5,12.0,94,0.00,,,0.01,Rainwise IP-100,2014-01-10 07:32:00,
2014-01-10 01:37:00,61.7,60.0,29.98,South,180,7.0,16.0,94,0.00,,,0.01,Rainwise IP-100,2014-01-10 07:37:00,
2014-01-10 01:43:00,61.7,60.0,29.98,SSE,157,9.3,13.0,94,0.00,,,0.01,Rainwise IP-100,2014-01-10 07:43:00,
2014-01-10 01:48:00,61.7,60.0,29.98,SSE,157,3.3,11.0,94,0.00,,,0.01,Rainwise IP-100,2014-01-10 07:48:00,
2014-01-10 01:53:00,61.7,59.0,29.98,SSW,202,7.5,12.0,93,0.00,,,0.01,Rainwise IP-100,2014-01-10 07:53:00,
2014-01-10 01:58:00,61.8,59.0,29.98,South,180,8.2,13.0,93,0.00,,,0.01,Rainwise IP-100,2014-01-10 07:58:00,
2014-01-10 02:03:00,61.8,59.0,29.98,SSE,157,7.2,17.0,93,0.00,,,0.01,Rainwise IP-100,2014-01-10 08:03:00,
2014-01-10 02:08:00,61.9,60.0,29.98,SSE,157,4.4,12.0,93,0.00,,,0.01,Rainwise IP-100,2014-01-10 08:08:00,
2014-01-10 02:13:00,61.9,60.0,29.98,SE,135,5.1,11.0,93,0.00,,,0.01,Rainwise IP-100,2014-01-10 08:13:00,
2014-01-10 02:18:00,62.0,60.0,29.98,SSW,202,9.3,15.0,92,0.00,,,0.01,Rainwise IP-100,2014-01-10 08:18:00,
2014-01-10 02:24:00,62.0,60.0,29.98,South,180,6.8,13.0,92,0.00,,,0.01,Rainwise IP-100,2014-01-10 08:24:00,
2014-01-10 02:29:00,62.0,60.0,29.97,South,180,5.6,11.0,92,0.00,,,0.01,Rainwise IP-100,2014-01-10 08:29:00,
2014-01-10 02:34:00,62.0,60.0,29.97,SSW,202,4.7,14.0,92,0.00,,,0.01,Rainwise IP-100,2014-01-10 08:34:00,
2014-01-10 02:39:00,62.1,60.0,29.96,SSE,157,3.7,12.0,92,0.00,,,0.01,Rainwise IP-100,2014-01-10 08:39:00,
2014-01-10 02:44:00,62.1,60.0,29.96,SSW,202,6.5,14.0,92,0.00,,,0.01,Rainwise IP-100,2014-01-10 08:44:00,
2014-01-10 02:49:00,62.1,60.0,29.97,South,180,10.3,13.0,92,0.00,,,0.01,Rainwise IP-100,2014-01-10 08:49:00,
2014-01-10 02:54:00,62.2,59.0,29.96,SSW,202,6.1,12.0,91,0.00,,,0.01,Rainwise IP-100,2014-01-10 08:54:00,
2014-01-10 03:00:00,62.2,59.0,29.96,South,180,4.9,9.0,91,0.00,,,0.01,Rainwise IP-100,2014-01-10 09:00:00,
2014-01-10 03:05:00,62.2,59.0,29.96,SSE,157,5.1,11.0,91,0.00,,,0.01,Rainwise IP-100,2014-01-10 09:05:00,
2014-01-10 03:10:00,62.3,59.0,29.96,South,180,4.4,11.0,91,0.00,,,0.01,Rainwise IP-100,2014-01-10 09:10:00,
2014-01-10 03:15:00,62.2,59.0,29.95,SSW,202,3.5,10.0,91,0.00,,,0.01,Rainwise IP-100,2014-01-10 09:15:00,
2014-01-10 03:20:00,62.2,59.0,29.95,SSE,157,4.7,11.0,91,0.00,,,0.01,Rainwise IP-100,2014-01-10 09:20:00,
2014-01-10 03:25:00,62.3,59.0,29.96,South,180,3.5,12.0,91,0.00,,,0.01,Rainwise IP-100,2014-01-10 09:25:00,
2014-01-10 03:30:00,62.3,59.0,29.95,SSE,157,7.5,11.0,90,0.00,,,0.01,Rainwise IP-100,2014-01-10 09:30:00,
2014-01-10 03:35:00,62.3,59.0,29.95,SSE,157,4.2,11.0,90,0.00,,,0.01,Rainwise IP-100,2014-01-10 09:35:00,
2014-01-10 03:41:00,62.3,59.0,29.95,SE,135,4.4,14.0,90,0.00,,,0.01,Rainwise IP-100,2014-01-10 09:41:00,
2014-01-10 03:46:00,62.3,59.0,29.95,SE,135,4.0,10.0,90,0.00,,,0.01,Rainwise IP-100,2014-01-10 09:46:00,
2014-01-10 03:51:00,62.3,59.0,29.95,SSE,157,2.8,10.0,90,0.00,,,0.01,Rainwise IP-100,2014-01-10 09:51:00,
2014-01-10 03:56:00,62.3,59.0,29.95,South,180,4.0,13.0,90,0.00,,,0.01,Rainwise IP-100,2014-01-10 09:56:00,
2014-01-10 04:01:00,62.3,59.0,29.95,SSE,157,3.3,13.0,90,0.00,,,0.01,Rainwise IP-100,2014-01-10 10:01:00,
2014-01-10 04:06:00,62.4,59.0,29.95,South,180,5.1,11.0,90,0.00,,,0.01,Rainwise IP-100,2014-01-10 10:06:00,
2014-01-10 04:11:00,62.4,59.0,29.95,SSE,157,3.5,8.0,90,0.00,,,0.01,Rainwise IP-100,2014-01-10 10:11:00,
2014-01-10 04:17:00,62.3,59.0,29.95,South,180,3.7,8.0,90,0.00,,,0.01,Rainwise IP-100,2014-01-10 10:17:00,
2014-01-10 04:22:00,62.4,59.0,29.95,SSE,157,3.7,8.0,90,0.00,,,0.01,Rainwise IP-100,2014-01-10 10:22:00,
2014-01-10 04:27:00,62.4,59.0,29.95,SSE,157,4.0,13.0,90,0.00,,,0.01,Rainwise IP-100,2014-01-10 10:27:00,
2014-01-10 04:32:00,62.5,59.0,29.94,SSE,157,2.1,8.0,90,0.00,,,0.01,Rainwise IP-100,2014-01-10 10:32:00,
2014-01-10 04:37:00,62.5,59.0,29.94,South,180,0.0,5.0,90,0.00,,,0.01,Rainwise IP-100,2014-01-10 10:37:00,
2014-01-10 04:42:00,62.4,59.0,29.94,South,180,4.4,7.0,90,0.00,,,0.01,Rainwise IP-100,2014-01-10 10:42:00,
2014-01-10 04:47:00,62.3,59.0,29.94,South,180,6.3,8.0,90,0.00,,,0.01,Rainwise IP-100,2014-01-10 10:47:00,
2014-01-10 04:52:00,62.4,59.0,29.94,SSE,157,3.3,8.0,90,0.00,,,0.01,Rainwise IP-100,2014-01-10 10:52:00,
2014-01-10 04:58:00,62.5,59.0,29.94,South,180,3.0,11.0,90,0.00,,,0.01,Rainwise IP-100,2014-01-10 10:58:00,
2014-01-10 05:03:00,62.5,59.0,29.94,South,180,4.0,7.0,90,0.00,,,0.01,Rainwise IP-100,2014-01-10 11:03:00,
2014-01-10 05:08:00,62.2,59.0,29.95,SSE,157,4.0,10.0,91,0.00,,,0.01,Rainwise IP-100,2014-01-10 11:08:00,
2014-01-10 05:13:00,61.8,59.0,29.94,SSW,202,2.6,6.0,92,0.00,,,0.01,Rainwise IP-100,2014-01-10 11:13:00,
2014-01-10 05:18:00,61.7,59.0,29.94,South,180,1.9,7.0,92,0.00,,,0.01,Rainwise IP-100,2014-01-10 11:18:00,
2014-01-10 05:23:00,61.7,59.0,29.95,SW,225,2.1,8.0,93,0.00,,,0.01,Rainwise IP-100,2014-01-10 11:23:00,
2014-01-10 05:28:00,61.7,59.0,29.95,SSE,157,4.7,5.0,93,0.00,,,0.01,Rainwise IP-100,2014-01-10 11:28:00,
2014-01-10 05:34:00,61.6,59.0,29.95,SSW,202,3.3,6.0,93,0.00,,,0.01,Rainwise IP-100,2014-01-10 11:34:00,
2014-01-10 05:39:00,61.7,59.0,29.95,SSE,157,2.8,6.0,93,0.00,,,0.01,Rainwise IP-100,2014-01-10 11:39:00,
2014-01-10 05:44:00,61.7,59.0,29.95,SSE,157,3.3,6.0,93,0.00,,,0.01,Rainwise IP-100,2014-01-10 11:44:00,
2014-01-10 05:49:00,61.7,59.0,29.94,South,180,7.2,8.0,93,0.00,,,0.01,Rainwise IP-100,2014-01-10 11:49:00,
2014-01-10 05:54:00,61.7,59.0,29.93,SSE,157,3.0,7.0,93,0.00,,,0.01,Rainwise IP-100,2014-01-10 11:54:00,
2014-01-10 05:59:00,61.8,59.0,29.94,SSW,202,5.8,8.0,93,0.00,,,0.01,Rainwise IP-100,2014-01-10 11:59:00,
2014-01-10 06:04:00,61.9,60.0,29.94,South,180,2.1,7.0,93,0.00,,,0.01,Rainwise IP-100,2014-01-10 12:04:00,
2014-01-10 06:09:00,61.9,60.0,29.94,South,180,4.0,7.0,93,0.00,,,0.01,Rainwise IP-100,2014-01-10 12:09:00,
2014-01-10 06:15:00,61.8,59.0,29.94,South,180,4.2,6.0,92,0.00,,,0.01,Rainwise IP-100,2014-01-10 12:15:00,
2014-01-10 06:20:00,61.9,60.0,29.94,SSE,157,1.9,6.0,92,0.00,,,0.01,Rainwise IP-100,2014-01-10 12:20:00,
2014-01-10 06:25:00,61.9,60.0,29.94,South,180,3.5,7.0,92,0.00,,,0.01,Rainwise IP-100,2014-01-10 12:25:00,
2014-01-10 06:30:00,61.9,60.0,29.94,SSW,202,3.5,6.0,92,0.00,,,0.01,Rainwise IP-100,2014-01-10 12:30:00,
2014-01-10 06:35:00,61.9,60.0,29.94,SSW,202,4.2,5.0,92,0.00,,,0.01,Rainwise IP-100,2014-01-10 12:35:00,
2014-01-10 06:40:00,62.0,60.0,29.94,SW,225,1.4,4.0,92,0.00,,,0.01,Rainwise IP-100,2014-01-10 12:40:00,
2014-01-10 06:45:00,62.0,60.0,29.94,South,180,2.1,5.0,92,0.00,,,0.01,Rainwise IP-100,2014-01-10 12:45:00,
2014-01-10 06:51:00,61.9,60.0,29.94,South,180,2.6,5.0,92,0.00,,,0.01,Rainwise IP-100,2014-01-10 12:51:00,
2014-01-10 06:56:00,61.8,59.0,29.95,South,180,2.1,5.0,92,0.00,,,0.01,Rainwise IP-100,2014-01-10 12:56:00,
2014-01-10 07:01:00,61.8,59.0,29.94,SSE,157,2.3,9.0,92,0.00,,,0.01,Rainwise IP-100,2014-01-10 13:01:00,
2014-01-10 07:06:00,61.9,60.0,29.94,South,180,6.1,7.0,92,0.00,,,0.01,Rainwise IP-100,2014-01-10 13:06:00,
2014-01-10 07:11:00,62.0,60.0,29.95,South,180,2.8,6.0,92,0.00,,,0.01,Rainwise IP-100,2014-01-10 13:11:00,
2014-01-10 07:16:00,61.9,60.0,29.95,South,180,1.2,5.0,92,0.00,,,0.01,Rainwise IP-100,2014-01-10 13:16:00,
2014-01-10 07:21:00,61.9,60.0,29.95,South,180,2.8,4.0,92,0.00,,,0.01,Rainwise IP-100,2014-01-10 13:21:00,
2014-01-10 07:26:00,62.0,60.0,29.95,SSE,157,0.0,5.0,92,0.00,,,0.01,Rainwise IP-100,2014-01-10 13:26:00,
2014-01-10 07:32:00,61.9,60.0,29.96,SSE,157,2.8,5.0,92,0.00,,,0.01,Rainwise IP-100,2014-01-10 13:32:00,
2014-01-10 07:37:00,62.0,59.0,29.96,SW,225,2.6,7.0,91,0.00,,,0.01,Rainwise IP-100,2014-01-10 13:37:00,
2014-01-10 07:42:00,62.2,59.0,29.95,SSW,202,3.0,10.0,91,0.00,,,0.01,Rainwise IP-100,2014-01-10 13:42:00,
2014-01-10 07:47:00,62.2,59.0,29.95,SSW,202,2.3,5.0,91,0.00,,,0.01,Rainwise IP-100,2014-01-10 13:47:00,
2014-01-10 07:52:00,62.3,59.0,29.95,South,180,1.9,7.0,90,0.00,,,0.01,Rainwise IP-100,2014-01-10 13:52:00,
2014-01-10 07:57:00,62.4,59.0,29.95,SSE,157,5.6,7.0,90,0.00,,,0.01,Rainwise IP-100,2014-01-10 13:57:00,
2014-01-10 08:02:00,62.5,59.0,29.96,SSE,157,1.9,8.0,90,0.00,,,0.01,Rainwise IP-100,2014-01-10 14:02:00,
2014-01-10 08:08:00,62.6,59.0,29.96,SSW,202,2.8,4.0,90,0.00,,,0.01,Rainwise IP-100,2014-01-10 14:08:00,
2014-01-10 08:13:00,62.6,59.0,29.96,SE,135,3.0,5.0,89,0.00,,,0.01,Rainwise IP-100,2014-01-10 14:13:00,
2014-01-10 08:18:00,62.5,59.0,29.96,South,180,2.8,4.0,89,0.00,,,0.01,Rainwise IP-100,2014-01-10 14:18:00,
2014-01-10 08:23:00,62.4,59.0,29.96,South,180,4.2,4.2,89,0.00,,,0.01,Rainwise IP-100,2014-01-10 14:23:00,
2014-01-10 08:28:00,62.3,59.0,29.97,SSE,157,1.4,4.0,90,0.00,,,0.01,Rainwise IP-100,2014-01-10 14:28:00,
2014-01-10 08:33:00,62.2,59.0,29.96,SSE,157,0.0,3.0,90,0.00,,,0.01,Rainwise IP-100,2014-01-10 14:33:00,
2014-01-10 08:38:00,62.2,59.0,29.97,SSE,157,0.0,4.0,90,0.00,,,0.01,Rainwise IP-100,2014-01-10 14:38:00,
2014-01-10 08:43:00,62.2,59.0,29.96,South,180,4.9,6.0,90,0.00,,,0.01,Rainwise IP-100,2014-01-10 14:43:00,
2014-01-10 08:49:00,62.4,59.0,29.97,SSW,202,2.3,6.0,89,0.00,,,0.01,Rainwise IP-100,2014-01-10 14:49:00,
2014-01-10 08:54:00,62.5,59.0,29.97,South,180,3.3,4.0,89,0.00,,,0.01,Rainwise IP-100,2014-01-10 14:54:00,
2014-01-10 08:59:00,62.5,59.0,29.97,South,180,3.7,5.0,89,0.00,,,0.01,Rainwise IP-100,2014-01-10 14:59:00,
2014-01-10 09:04:00,62.5,59.0,29.97,South,180,1.4,6.0,89,0.00,,,0.01,Rainwise IP-100,2014-01-10 15:04:00,
2014-01-10 09:09:00,62.7,59.0,29.97,SSE,157,1.2,4.0,88,0.00,,,0.01,Rainwise IP-100,2014-01-10 15:09:00,
2014-01-10 09:14:00,62.7,59.0,29.98,SSE,157,1.2,4.0,88,0.00,,,0.01,Rainwise IP-100,2014-01-10 15:14:00,
2014-01-10 09:19:00,62.9,59.0,29.98,South,180,5.8,6.0,88,0.00,,,0.01,Rainwise IP-100,2014-01-10 15:19:00,
2014-01-10 09:25:00,63.0,59.0,29.98,SE,135,1.4,6.0,88,0.00,,,0.01,Rainwise IP-100,2014-01-10 15:25:00,
2014-01-10 09:30:00,63.1,59.0,29.98,SSE,157,2.1,6.0,87,0.00,,,0.01,Rainwise IP-100,2014-01-10 15:30:00,
2014-01-10 09:35:00,63.1,59.0,29.98,SSE,157,2.1,5.0,87,0.00,,,0.01,Rainwise IP-100,2014-01-10 15:35:00,
2014-01-10 09:40:00,63.2,59.0,29.98,ESE,112,2.3,5.0,87,0.00,,,0.01,Rainwise IP-100,2014-01-10 15:40:00,
2014-01-10 09:45:00,63.2,59.0,29.97,South,180,5.1,6.0,87,0.00,,,0.01,Rainwise IP-100,2014-01-10 15:45:00,
2014-01-10 09:50:00,63.3,59.0,29.97,SSW,202,4.9,7.0,87,0.00,,,0.01,Rainwise IP-100,2014-01-10 15:50:00,
2014-01-10 09:55:00,63.4,59.0,29.98,South,180,3.0,10.0,86,0.00,,,0.01,Rainwise IP-100,2014-01-10 15:55:00,
2014-01-10 10:00:00,63.6,59.0,29.97,South,180,4.2,10.0,86,0.00,,,0.01,Rainwise IP-100,2014-01-10 16:00:00,
2014-01-10 10:06:00,63.7,59.0,29.98,South,180,5.1,11.0,86,0.00,,,0.01,Rainwise IP-100,2014-01-10 16:06:00,
2014-01-10 10:11:00,63.8,59.0,29.97,South,180,3.3,10.0,85,0.00,,,0.01,Rainwise IP-100,2014-01-10 16:11:00,
2014-01-10 10:16:00,63.9,59.0,29.97,SSW,202,7.0,9.0,85,0.00,,,0.01,Rainwise IP-100,2014-01-10 16:16:00,
2014-01-10 10:21:00,64.1,59.0,29.97,SSE,157,7.0,15.0,85,0.00,,,0.01,Rainwise IP-100,2014-01-10 16:21:00,
2014-01-10 10:26:00,64.2,59.0,29.97,South,180,7.0,12.0,85,0.00,,,0.01,Rainwise IP-100,2014-01-10 16:26:00,
2014-01-10 10:31:00,64.3,59.0,29.96,SSW,202,3.0,11.0,84,0.00,,,0.01,Rainwise IP-100,2014-01-10 16:31:00,
2014-01-10 10:36:00,64.4,59.0,29.96,South,180,4.7,11.0,84,0.00,,,0.01,Rainwise IP-100,2014-01-10 16:36:00,
2014-01-10 10:42:00,64.6,59.0,29.96,SW,225,6.8,12.0,84,0.00,,,0.01,Rainwise IP-100,2014-01-10 16:42:00,
2014-01-10 10:47:00,64.7,59.0,29.96,WSW,247,7.9,14.0,84,0.00,,,0.01,Rainwise IP-100,2014-01-10 16:47:00,
2014-01-10 10:52:00,64.7,59.0,29.96,SSW,202,7.9,15.0,84,0.00,,,0.01,Rainwise IP-100,2014-01-10 16:52:00,
2014-01-10 10:57:00,64.7,59.0,29.95,ESE,112,3.5,11.0,84,0.00,,,0.01,Rainwise IP-100,2014-01-10 16:57:00,
2014-01-10 11:02:00,64.6,59.0,29.95,South,180,10.7,14.0,84,0.00,,,0.01,Rainwise IP-100,2014-01-10 17:02:00,
2014-01-10 11:07:00,64.6,59.0,29.95,SSW,202,4.2,13.0,84,0.00,,,0.01,Rainwise IP-100,2014-01-10 17:07:00,
2014-01-10 11:12:00,64.6,59.0,29.95,SSW,202,7.5,11.0,84,0.00,,,0.01,Rainwise IP-100,2014-01-10 17:12:00,
2014-01-10 11:17:00,64.6,59.0,29.94,SSW,202,5.8,12.0,84,0.00,,,0.01,Rainwise IP-100,2014-01-10 17:17:00,
2014-01-10 11:23:00,64.8,59.0,29.94,SSW,202,7.9,11.0,84,0.00,,,0.01,Rainwise IP-100,2014-01-10 17:23:00,
2014-01-10 11:28:00,65.3,59.0,29.93,South,180,8.2,11.0,83,0.00,,,0.01,Rainwise IP-100,2014-01-10 17:28:00,
2014-01-10 11:33:00,65.8,60.0,29.93,South,180,5.6,15.0,82,0.00,,,0.01,Rainwise IP-100,2014-01-10 17:33:00,
2014-01-10 11:38:00,66.1,60.0,29.93,SSE,157,8.6,16.0,81,0.00,,,0.01,Rainwise IP-100,2014-01-10 17:38:00,
2014-01-10 11:43:00,66.2,60.0,29.92,South,180,6.8,15.0,81,0.00,,,0.01,Rainwise IP-100,2014-01-10 17:43:00,
2014-01-10 11:48:00,66.2,60.0,29.91,SSW,202,4.4,10.0,80,0.00,,,0.01,Rainwise IP-100,2014-01-10 17:48:00,
2014-01-10 11:53:00,66.4,60.0,29.92,SSW,202,5.1,8.0,80,0.00,,,0.01,Rainwise IP-100,2014-01-10 17:53:00,
2014-01-10 11:59:00,67.2,60.0,29.91,SSW,202,4.7,12.0,79,0.00,,,0.01,Rainwise IP-100,2014-01-10 17:59:00,
2014-01-10 12:04:00,68.7,60.0,29.90,South,180,4.4,15.0,76,0.00,,,0.01,Rainwise IP-100,2014-01-10 18:04:00,
2014-01-10 12:09:00,69.5,60.0,29.89,SSW,202,13.1,19.0,72,0.00,,,0.01,Rainwise IP-100,2014-01-10 18:09:00,
2014-01-10 12:14:00,69.6,59.0,29.89,South,180,23.1,23.1,70,0.00,,,0.01,Rainwise IP-100,2014-01-10 18:14:00,
2014-01-10 12:19:00,69.7,59.0,29.89,South,180,7.9,23.0,69,0.00,,,0.01,Rainwise IP-100,2014-01-10 18:19:00,
2014-01-10 12:24:00,70.0,59.0,29.88,South,180,11.9,16.0,69,0.00,,,0.01,Rainwise IP-100,2014-01-10 18:24:00,
2014-01-10 12:30:00,70.4,59.0,29.88,SSE,157,7.2,14.0,68,0.00,,,0.01,Rainwise IP-100,2014-01-10 18:30:00,
2014-01-10 12:35:00,70.6,59.0,29.87,South,180,12.4,18.0,67,0.00,,,0.01,Rainwise IP-100,2014-01-10 18:35:00,
2014-01-10 12:40:00,70.7,59.0,29.87,SSE,157,9.3,16.0,66,0.00,,,0.01,Rainwise IP-100,2014-01-10 18:40:00,
2014-01-10 12:45:00,71.2,59.0,29.87,SSW,202,9.1,13.0,65,0.00,,,0.01,Rainwise IP-100,2014-01-10 18:45:00,
2014-01-10 12:50:00,71.5,59.0,29.86,South,180,8.2,14.0,64,0.00,,,0.01,Rainwise IP-100,2014-01-10 18:50:00,
2014-01-10 12:55:00,71.2,58.0,29.85,WSW,247,2.6,16.0,64,0.00,,,0.01,Rainwise IP-100,2014-01-10 18:55:00,
2014-01-10 13:00:00,71.2,58.0,29.86,SSE,157,12.8,14.0,64,0.00,,,0.01,Rainwise IP-100,2014-01-10 19:00:00,
2014-01-10 13:05:00,71.3,58.0,29.84,South,180,11.7,15.0,64,0.00,,,0.01,Rainwise IP-100,2014-01-10 19:05:00,
2014-01-10 13:10:00,71.3,58.0,29.84,SSE,157,11.2,15.0,64,0.00,,,0.01,Rainwise IP-100,2014-01-10 19:10:00,
2014-01-10 13:16:00,71.2,58.0,29.83,SSW,202,4.4,18.0,64,0.00,,,0.01,Rainwise IP-100,2014-01-10 19:16:00,
2014-01-10 13:21:00,71.1,58.0,29.83,SSW,202,5.6,16.0,64,0.00,,,0.01,Rainwise IP-100,2014-01-10 19:21:00,
2014-01-10 13:26:00,71.1,58.0,29.83,South,180,3.3,15.0,64,0.00,,,0.01,Rainwise IP-100,2014-01-10 19:26:00,
2014-01-10 13:31:00,71.0,58.0,29.82,SSW,202,4.2,12.0,64,0.00,,,0.01,Rainwise IP-100,2014-01-10 19:31:00,
2014-01-10 13:36:00,71.0,58.0,29.82,South,180,6.5,11.0,65,0.00,,,0.01,Rainwise IP-100,2014-01-10 19:36:00,
2014-01-10 13:41:00,71.0,58.0,29.82,South,180,7.5,11.0,65,0.00,,,0.01,Rainwise IP-100,2014-01-10 19:41:00,
2014-01-10 13:46:00,71.0,58.0,29.82,South,180,8.2,12.0,65,0.00,,,0.01,Rainwise IP-100,2014-01-10 19:46:00,
2014-01-10 13:52:00,70.8,58.0,29.81,South,180,6.1,15.0,65,0.00,,,0.01,Rainwise IP-100,2014-01-10 19:52:00,
2014-01-10 13:57:00,70.5,58.0,29.82,SSW,202,3.0,15.0,65,0.00,,,0.01,Rainwise IP-100,2014-01-10 19:57:00,
2014-01-10 14:02:00,70.3,57.0,29.81,SSW,202,5.8,12.0,65,0.00,,,0.01,Rainwise IP-100,2014-01-10 20:02:00,
2014-01-10 14:07:00,70.4,58.0,29.81,SSW,202,4.4,13.0,65,0.00,,,0.01,Rainwise IP-100,2014-01-10 20:07:00,
2014-01-10 14:12:00,70.2,57.0,29.81,SSW,202,6.1,14.0,65,0.00,,,0.01,Rainwise IP-100,2014-01-10 20:12:00,
2014-01-10 14:17:00,70.1,57.0,29.82,SE,135,2.8,14.0,65,0.00,,,0.01,Rainwise IP-100,2014-01-10 20:17:00,
2014-01-10 14:22:00,70.2,57.0,29.81,SSW,202,4.9,11.0,65,0.00,,,0.01,Rainwise IP-100,2014-01-10 20:22:00,
2014-01-10 14:27:00,70.2,57.0,29.81,South,180,4.4,12.0,65,0.00,,,0.01,Rainwise IP-100,2014-01-10 20:27:00,
2014-01-10 14:33:00,70.0,57.0,29.82,SSE,157,3.3,14.0,65,0.00,,,0.01,Rainwise IP-100,2014-01-10 20:33:00,
2014-01-10 14:38:00,70.2,58.0,29.82,WSW,247,4.2,9.0,66,0.00,,,0.01,Rainwise IP-100,2014-01-10 20:38:00,
2014-01-10 14:43:00,70.5,58.0,29.82,West,270,9.8,14.0,65,0.00,,,0.01,Rainwise IP-100,2014-01-10 20:43:00,
2014-01-10 14:48:00,70.4,57.0,29.81,WSW,247,6.5,12.0,64,0.00,,,0.01,Rainwise IP-100,2014-01-10 20:48:00,
2014-01-10 14:53:00,70.0,57.0,29.81,WSW,247,4.4,11.0,65,0.00,,,0.01,Rainwise IP-100,2014-01-10 20:53:00,
2014-01-10 14:58:00,69.8,57.0,29.81,South,180,7.7,15.0,65,0.00,,,0.01,Rainwise IP-100,2014-01-10 20:58:00,
2014-01-10 15:03:00,69.8,57.0,29.80,WSW,247,3.3,10.0,65,0.00,,,0.01,Rainwise IP-100,2014-01-10 21:03:00,
2014-01-10 15:08:00,69.9,58.0,29.81,WSW,247,6.1,7.0,66,0.00,,,0.01,Rainwise IP-100,2014-01-10 21:08:00,
2014-01-10 15:14:00,70.1,57.0,29.80,SSW,202,4.9,9.0,65,0.00,,,0.01,Rainwise IP-100,2014-01-10 21:14:00,
2014-01-10 15:19:00,69.8,57.0,29.80,SW,225,3.5,7.0,65,0.00,,,0.01,Rainwise IP-100,2014-01-10 21:19:00,
2014-01-10 15:24:00,69.5,57.0,29.80,South,180,6.3,10.0,66,0.00,,,0.01,Rainwise IP-100,2014-01-10 21:24:00,
2014-01-10 15:29:00,69.2,57.0,29.81,SW,225,2.8,9.0,67,0.00,,,0.01,Rainwise IP-100,2014-01-10 21:29:00,
2014-01-10 15:34:00,69.1,57.0,29.81,SW,225,7.2,11.0,67,0.00,,,0.01,Rainwise IP-100,2014-01-10 21:34:00,
2014-01-10 15:39:00,69.1,57.0,29.81,SSE,157,2.8,8.0,66,0.00,,,0.01,Rainwise IP-100,2014-01-10 21:39:00,
2014-01-10 15:44:00,69.2,57.0,29.81,WSW,247,3.5,7.0,65,0.00,,,0.01,Rainwise IP-100,2014-01-10 21:44:00,
2014-01-10 15:50:00,69.2,57.0,29.81,SSW,202,3.0,7.0,65,0.00,,,0.01,Rainwise IP-100,2014-01-10 21:50:00,
2014-01-10 15:55:00,69.0,56.0,29.82,SW,225,1.4,11.0,64,0.00,,,0.01,Rainwise IP-100,2014-01-10 21:55:00,
2014-01-10 16:00:00,68.8,56.0,29.82,SSW,202,2.3,8.0,64,0.00,,,0.01,Rainwise IP-100,2014-01-10 22:00:00,
2014-01-10 16:05:00,68.6,56.0,29.82,WSW,247,5.8,7.0,65,0.00,,,0.01,Rainwise IP-100,2014-01-10 22:05:00,
2014-01-10 16:10:00,68.3,56.0,29.82,SW,225,2.1,9.0,65,0.00,,,0.01,Rainwise IP-100,2014-01-10 22:10:00,
2014-01-10 16:15:00,68.1,56.0,29.82,South,180,4.2,6.0,66,0.00,,,0.01,Rainwise IP-100,2014-01-10 22:15:00,
2014-01-10 16:20:00,68.0,56.0,29.82,SSW,202,3.3,7.0,66,0.00,,,0.01,Rainwise IP-100,2014-01-10 22:20:00,
2014-01-10 16:25:00,67.7,56.0,29.83,WSW,247,3.0,8.0,67,0.00,,,0.01,Rainwise IP-100,2014-01-10 22:25:00,
2014-01-10 16:31:00,67.4,56.0,29.83,SSW,202,3.0,5.0,67,0.00,,,0.01,Rainwise IP-100,2014-01-10 22:31:00,
2014-01-10 16:36:00,67.2,56.0,29.82,SW,225,4.2,6.0,68,0.00,,,0.01,Rainwise IP-100,2014-01-10 22:36:00,
2014-01-10 16:41:00,67.1,56.0,29.83,South,180,3.0,5.0,68,0.00,,,0.01,Rainwise IP-100,2014-01-10 22:41:00,
2014-01-10 16:46:00,66.9,56.0,29.83,SSW,202,2.6,5.0,69,0.00,,,0.01,Rainwise IP-100,2014-01-10 22:46:00,
2014-01-10 16:51:00,66.8,56.0,29.83,South,180,1.6,6.0,69,0.00,,,0.01,Rainwise IP-100,2014-01-10 22:51:00,
2014-01-10 16:56:00,66.6,56.0,29.83,SSW,202,3.5,5.0,70,0.00,,,0.01,Rainwise IP-100,2014-01-10 22:56:00,
2014-01-10 17:01:00,66.5,56.0,29.82,South,180,2.8,5.0,70,0.00,,,0.01,Rainwise IP-100,2014-01-10 23:01:00,
2014-01-10 17:07:00,66.3,56.0,29.82,SSE,157,4.2,7.0,71,0.00,,,0.01,Rainwise IP-100,2014-01-10 23:07:00,
2014-01-10 17:12:00,66.2,56.0,29.82,SW,225,1.4,6.0,71,0.00,,,0.01,Rainwise IP-100,2014-01-10 23:12:00,
2014-01-10 17:17:00,66.1,56.0,29.82,SW,225,1.6,6.0,71,0.00,,,0.01,Rainwise IP-100,2014-01-10 23:17:00,
2014-01-10 17:22:00,66.0,56.0,29.82,SSE,157,4.4,7.0,71,0.00,,,0.01,Rainwise IP-100,2014-01-10 23:22:00,
2014-01-10 17:27:00,65.8,56.0,29.82,SSW,202,6.8,8.0,72,0.00,,,0.01,Rainwise IP-100,2014-01-10 23:27:00,
2014-01-10 17:32:00,65.7,56.0,29.82,SSE,157,3.0,7.0,72,0.00,,,0.01,Rainwise IP-100,2014-01-10 23:32:00,
2014-01-10 17:37:00,65.4,56.0,29.82,SSE,157,1.2,5.0,72,0.00,,,0.01,Rainwise IP-100,2014-01-10 23:37:00,
2014-01-10 17:42:00,64.9,56.0,29.83,South,180,2.8,3.0,73,0.00,,,0.01,Rainwise IP-100,2014-01-10 23:42:00,
2014-01-10 17:48:00,64.6,56.0,29.83,South,180,3.7,4.0,74,0.00,,,0.01,Rainwise IP-100,2014-01-10 23:48:00,
2014-01-10 17:53:00,64.1,56.0,29.83,South,180,1.2,5.0,75,0.00,,,0.01,Rainwise IP-100,2014-01-10 23:53:00,
2014-01-10 17:58:00,63.8,56.0,29.82,South,180,1.9,5.0,76,0.00,,,0.01,Rainwise IP-100,2014-01-10 23:58:00,
2014-01-10 18:03:00,63.4,56.0,29.83,SSW,202,2.1,4.0,77,0.00,,,0.01,Rainwise IP-100,2014-01-11 00:03:00,
2014-01-10 18:08:00,63.0,56.0,29.83,South,180,3.0,4.0,78,0.00,,,0.01,Rainwise IP-100,2014-01-11 00:08:00,
2014-01-10 18:13:00,62.7,56.0,29.83,SSW,202,4.7,4.7,79,0.00,,,0.01,Rainwise IP-100,2014-01-11 00:13:00,
2014-01-10 18:18:00,62.6,56.0,29.83,SW,225,0.0,4.0,80,0.00,,,0.01,Rainwise IP-100,2014-01-11 00:18:00,
2014-01-10 18:24:00,62.5,56.0,29.84,SW,225,3.0,5.0,80,0.00,,,0.01,Rainwise IP-100,2014-01-11 00:24:00,
2014-01-10 18:29:00,62.3,56.0,29.84,South,180,3.0,5.0,80,0.00,,,0.01,Rainwise IP-100,2014-01-11 00:29:00,
2014-01-10 18:34:00,62.1,56.0,29.84,SSW,202,2.3,5.0,81,0.00,,,0.01,Rainwise IP-100,2014-01-11 00:34:00,
2014-01-10 18:39:00,61.8,56.0,29.83,SW,225,0.0,4.0,81,0.00,,,0.01,Rainwise IP-100,2014-01-11 00:39:00,
2014-01-10 18:44:00,61.7,56.0,29.83,SW,225,1.6,5.0,82,0.00,,,0.01,Rainwise IP-100,2014-01-11 00:44:00,
2014-01-10 18:49:00,61.6,56.0,29.84,South,180,2.1,5.0,82,0.00,,,0.01,Rainwise IP-100,2014-01-11 00:49:00,
2014-01-10 18:54:00,61.4,56.0,29.84,SSW,202,2.3,5.0,82,0.00,,,0.01,Rainwise IP-100,2014-01-11 00:54:00,
2014-01-10 18:59:00,61.3,56.0,29.85,SSW,202,1.6,5.0,83,0.00,,,0.01,Rainwise IP-100,2014-01-11 00:59:00,
2014-01-10 19:05:00,61.0,56.0,29.85,SSW,202,0.0,6.0,83,0.00,,,0.01,Rainwise IP-100,2014-01-11 01:05:00,
2014-01-10 19:10:00,60.8,56.0,29.85,SW,225,2.1,4.0,84,0.00,,,0.01,Rainwise IP-100,2014-01-11 01:10:00,
2014-01-10 19:15:00,60.6,56.0,29.85,South,180,2.6,3.0,84,0.00,,,0.01,Rainwise IP-100,2014-01-11 01:15:00,
2014-01-10 19:20:00,60.4,56.0,29.85,SSW,202,2.1,4.0,85,0.00,,,0.01,Rainwise IP-100,2014-01-11 01:20:00,
2014-01-10 19:25:00,60.2,55.0,29.85,SSW,202,2.8,3.0,85,0.00,,,0.01,Rainwise IP-100,2014-01-11 01:25:00,
2014-01-10 19:30:00,60.0,55.0,29.85,SSW,202,4.2,4.2,85,0.00,,,0.01,Rainwise IP-100,2014-01-11 01:30:00,
2014-01-10 19:35:00,59.8,55.0,29.85,SSW,202,1.9,5.0,86,0.00,,,0.01,Rainwise IP-100,2014-01-11 01:35:00,
2014-01-10 19:41:00,59.5,55.0,29.85,SW,225,1.6,5.0,86,0.00,,,0.01,Rainwise IP-100,2014-01-11 01:41:00,
2014-01-10 19:46:00,59.2,55.0,29.85,South,180,3.7,4.0,87,0.00,,,0.01,Rainwise IP-100,2014-01-11 01:46:00,
2014-01-10 19:51:00,58.9,55.0,29.85,South,180,1.6,4.0,87,0.00,,,0.01,Rainwise IP-100,2014-01-11 01:51:00,
2014-01-10 19:56:00,58.7,55.0,29.85,South,180,2.1,4.0,88,0.00,,,0.01,Rainwise IP-100,2014-01-11 01:56:00,
2014-01-10 20:01:00,58.4,54.0,29.85,SSW,202,1.6,4.0,88,0.00,,,0.01,Rainwise IP-100,2014-01-11 02:01:00,
2014-01-10 20:06:00,58.2,55.0,29.86,South,180,2.1,3.0,89,0.00,,,0.01,Rainwise IP-100,2014-01-11 02:06:00,
2014-01-10 20:12:00,58.0,55.0,29.86,South,180,1.6,3.0,89,0.00,,,0.01,Rainwise IP-100,2014-01-11 02:12:00,
2014-01-10 20:17:00,57.7,54.0,29.86,SSW,202,1.6,2.0,89,0.00,,,0.01,Rainwise IP-100,2014-01-11 02:17:00,
2014-01-10 20:22:00,57.4,54.0,29.86,SSW,202,0.0,2.0,90,0.00,,,0.01,Rainwise IP-100,2014-01-11 02:22:00,
2014-01-10 20:27:00,57.0,54.0,29.86,SSW,202,0.0,1.0,90,0.00,,,0.01,Rainwise IP-100,2014-01-11 02:27:00,
2014-01-10 20:32:00,56.6,54.0,29.86,SSW,202,1.4,1.4,91,0.00,,,0.01,Rainwise IP-100,2014-01-11 02:32:00,
2014-01-10 20:37:00,56.2,53.0,29.86,SSW,202,0.0,1.0,92,0.00,,,0.01,Rainwise IP-100,2014-01-11 02:37:00,
2014-01-10 20:42:00,56.1,53.0,29.86,SSW,202,1.4,2.0,92,0.00,,,0.01,Rainwise IP-100,2014-01-11 02:42:00,
2014-01-10 20:47:00,56.4,54.0,29.87,WSW,247,0.0,7.0,93,0.00,,,0.01,Rainwise IP-100,2014-01-11 02:47:00,
2014-01-10 20:52:00,57.1,54.0,29.87,South,180,2.1,6.0,92,0.00,,,0.01,Rainwise IP-100,2014-01-11 02:52:00,
2014-01-10 20:58:00,57.7,55.0,29.87,SSW,202,2.8,5.0,92,0.00,,,0.01,Rainwise IP-100,2014-01-11 02:58:00,
2014-01-10 21:03:00,58.1,56.0,29.87,SSW,202,2.3,6.0,92,0.00,,,0.01,Rainwise IP-100,2014-01-11 03:03:00,
2014-01-10 21:08:00,58.3,56.0,29.87,SW,225,0.0,4.0,91,0.00,,,0.01,Rainwise IP-100,2014-01-11 03:08:00,
2014-01-10 21:13:00,58.2,56.0,29.87,SW,225,2.6,5.0,91,0.00,,,0.01,Rainwise IP-100,2014-01-11 03:13:00,
2014-01-10 21:18:00,58.1,56.0,29.87,South,180,2.1,6.0,91,0.00,,,0.01,Rainwise IP-100,2014-01-11 03:18:00,
2014-01-10 21:23:00,58.0,56.0,29.87,SW,225,3.5,3.5,91,0.00,,,0.01,Rainwise IP-100,2014-01-11 03:23:00,
2014-01-10 21:28:00,57.7,55.0,29.87,SSW,202,2.1,3.0,91,0.00,,,0.01,Rainwise IP-100,2014-01-11 03:28:00,
2014-01-10 21:34:00,57.5,55.0,29.87,SSW,202,2.3,4.0,91,0.00,,,0.01,Rainwise IP-100,2014-01-11 03:34:00,
2014-01-10 21:39:00,57.4,55.0,29.87,South,180,2.6,5.0,92,0.00,,,0.01,Rainwise IP-100,2014-01-11 03:39:00,
2014-01-10 21:44:00,57.3,54.0,29.87,SSW,202,2.8,3.0,92,0.00,,,0.01,Rainwise IP-100,2014-01-11 03:44:00,
2014-01-10 21:49:00,57.2,54.0,29.88,South,180,2.8,5.0,92,0.00,,,0.01,Rainwise IP-100,2014-01-11 03:49:00,
2014-01-10 21:54:00,57.1,54.0,29.88,SW,225,2.6,4.0,92,0.00,,,0.01,Rainwise IP-100,2014-01-11 03:54:00,
2014-01-10 21:59:00,57.2,54.0,29.88,WSW,247,2.8,4.0,92,0.00,,,0.01,Rainwise IP-100,2014-01-11 03:59:00,
2014-01-10 22:04:00,57.3,54.0,29.88,SSW,202,3.0,6.0,92,0.00,,,0.01,Rainwise IP-100,2014-01-11 04:04:00,
2014-01-10 22:09:00,57.4,55.0,29.88,SW,225,1.4,4.0,92,0.00,,,0.01,Rainwise IP-100,2014-01-11 04:09:00,
2014-01-10 22:15:00,57.5,55.0,29.88,South,180,2.6,4.0,92,0.00,,,0.01,Rainwise IP-100,2014-01-11 04:15:00,
2014-01-10 22:20:00,57.2,54.0,29.89,SSW,202,2.1,4.0,92,0.00,,,0.01,Rainwise IP-100,2014-01-11 04:20:00,
2014-01-10 22:25:00,57.0,54.0,29.89,South,180,2.8,5.0,92,0.00,,,0.01,Rainwise IP-100,2014-01-11 04:25:00,
2014-01-10 22:30:00,56.7,54.0,29.88,South,180,3.0,4.0,92,0.00,,,0.01,Rainwise IP-100,2014-01-11 04:30:00,
2014-01-10 22:35:00,56.4,54.0,29.88,South,180,2.3,4.0,92,0.00,,,0.01,Rainwise IP-100,2014-01-11 04:35:00,
2014-01-10 22:40:00,56.1,54.0,29.89,SSW,202,1.6,3.0,93,0.00,,,0.01,Rainwise IP-100,2014-01-11 04:40:00,
2014-01-10 22:45:00,55.7,54.0,29.89,SSW,202,1.9,3.0,93,0.00,,,0.01,Rainwise IP-100,2014-01-11 04:45:00,
2014-01-10 22:51:00,55.5,54.0,29.89,SSW,202,2.1,3.0,93,0.00,,,0.01,Rainwise IP-100,2014-01-11 04:51:00,
2014-01-10 22:56:00,55.5,54.0,29.89,SSW,202,2.8,3.0,94,0.00,,,0.01,Rainwise IP-100,2014-01-11 04:56:00,
2014-01-10 23:01:00,55.3,53.0,29.90,SSW,202,2.6,3.0,94,0.00,,,0.01,Rainwise IP-100,2014-01-11 05:01:00,
2014-01-10 23:02:00,55.3,53.0,29.89,South,180,2.6,3.0,94,0.00,,,0.01,Rainwise IP-100,2014-01-11 05:02:00,
2014-01-10 23:03:00,55.2,53.0,29.89,South,180,2.1,3.0,94,0.00,,,0.01,Rainwise IP-100,2014-01-11 05:03:00,
2014-01-10 23:09:00,55.0,53.0,29.90,SSW,202,1.9,3.0,94,0.00,,,0.01,Rainwise IP-100,2014-01-11 05:09:00,
2014-01-10 23:14:00,54.7,53.0,29.90,SSW,202,2.6,4.0,94,0.00,,,0.01,Rainwise IP-100,2014-01-11 05:14:00,
2014-01-10 23:19:00,54.6,53.0,29.90,SSW,202,2.6,4.0,95,0.00,,,0.01,Rainwise IP-100,2014-01-11 05:19:00,
2014-01-10 23:24:00,54.5,53.0,29.90,SSW,202,2.8,4.0,95,0.00,,,0.01,Rainwise IP-100,2014-01-11 05:24:00,
2014-01-10 23:29:00,54.4,53.0,29.90,SSW,202,2.1,4.0,95,0.00,,,0.01,Rainwise IP-100,2014-01-11 05:29:00,
2014-01-10 23:34:00,54.4,53.0,29.90,SSW,202,2.8,4.0,95,0.00,,,0.01,Rainwise IP-100,2014-01-11 05:34:00,
2014-01-10 23:39:00,54.3,53.0,29.90,SSW,202,2.6,3.0,95,0.00,,,0.01,Rainwise IP-100,2014-01-11 05:39:00,
2014-01-10 23:44:00,54.3,53.0,29.90,SSW,202,2.8,4.0,95,0.00,,,0.01,Rainwise IP-100,2014-01-11 05:44:00,
2014-01-10 23:50:00,54.2,53.0,29.90,SSW,202,3.0,3.0,95,0.00,,,0.01,Rainwise IP-100,2014-01-11 05:50:00,
2014-01-10 23:55:00,54.1,53.0,29.90,SSW,202,2.3,3.0,95,0.00,,,0.01,Rainwise IP-100,2014-01-11 05:55:00,